Cozumel Airport, Mexico

10:10 PM EST on August 26, 2016 (GMT -0500)
Cozumel International

Weather History for MMCZ - July, 2013

Change the Weather History Date:

Monday, July 22, 2013

  Actual Average Record
Temperature  
Mean Temperature 80 °F -  
Max Temperature 86 °F 89 °F 93 °F (1997)
Min Temperature 73 °F 76 °F 68 °F (2011)
Cooling Degree Days 14    
Growing Degree Days 30 (Base 50)    
Moisture  
Dew Point 73 °F    
Average Humidity 82    
Maximum Humidity 94    
Minimum Humidity 66    
Precipitation  
Precipitation 0.00 in - - ()
Sea Level Pressure  
Sea Level Pressure 30.04 in    
Wind  
Wind Speed 7 mph ()    
Max Wind Speed 15 mph    
Max Gust Speed -    
Visibility 7.5 miles    
Events      
Averages and records for this station are not official NWS values.
T = Trace of Precipitation, MM = Missing Value Source: Averaged Metar Reports

Daily Weather History Graph

Daily Weather History Graph

Search for Another Location

Airport or City:

Trip Planner

Search our weather history database for the weather conditions in past years. The results will help you decide how hot, cold, wet, or windy it might be!

Date:

Astronomy

Jul. 22, 2013 Rise Set
Actual Time 6:18 AM CDT 7:29 PM CDT
Civil Twilight 5:54 AM CDT 7:53 PM CDT
Nautical Twilight 5:26 AM CDT 8:21 PM CDT
Astronomical Twilight 4:56 AM CDT 8:51 PM CDT
Moon 7:27 PM CDT (7/22) 6:06 AM CDT (7/22)
Length of Visible Light 13h 58m
Length of Day
13h 10m
Full, 100% of the Moon is Illuminated
Jul 22
Full
Jul 22
Full
Jul 29
Last Quarter
Aug 6
New
Aug 14
First Quarter

Hourly Weather History & Observations

Time (CDT) Temp. Heat Index Dew Point Humidity Pressure Visibility Wind Dir Wind Speed Gust Speed Precip Events Conditions
12:40 AM 75.2 °F - 73.4 °F 94% 30.03 in 7.0 mi East 4.6 mph - N/A   Scattered Clouds
1:40 AM 73.4 °F - 71.6 °F 94% 30.04 in 7.0 mi East 4.6 mph - N/A   Scattered Clouds
2:40 AM 73.4 °F - 71.6 °F 94% 30.03 in 7.0 mi East 5.8 mph - N/A   Scattered Clouds
3:41 AM 73.4 °F - 71.6 °F 94% 30.06 in 7.0 mi East 3.5 mph - N/A   Partly Cloudy
4:40 AM 73.4 °F - 71.6 °F 94% 30.03 in 7.0 mi East 4.6 mph - N/A   Partly Cloudy
5:40 AM 73.4 °F - 71.6 °F 94% 30.04 in 7.0 mi East 3.5 mph - N/A   Scattered Clouds
6:40 AM 73.4 °F - 71.6 °F 94% 30.02 in 7.0 mi East 5.8 mph - N/A   Scattered Clouds
7:43 AM 77.0 °F - 73.4 °F 89% 30.06 in 8.0 mi East 6.9 mph - N/A   Scattered Clouds
8:45 AM 80.6 °F 85.4 °F 73.4 °F 79% 30.06 in 8.0 mi East 13.8 mph - N/A   Scattered Clouds
9:43 AM 82.4 °F 88.2 °F 73.4 °F 74% 30.10 in 8.0 mi ESE 15.0 mph - N/A   Scattered Clouds
10:46 AM 84.2 °F 90.9 °F 73.4 °F 70% 30.07 in 8.0 mi ESE 15.0 mph - N/A   Scattered Clouds
11:40 AM 84.2 °F 90.9 °F 73.4 °F 70% 30.07 in 8.0 mi ESE 11.5 mph - N/A   Scattered Clouds
12:40 PM 86.0 °F 93.4 °F 73.4 °F 66% 30.06 in 8.0 mi ESE 15.0 mph - N/A   Scattered Clouds
1:44 PM 84.2 °F 90.9 °F 73.4 °F 70% 30.05 in 8.0 mi ESE 12.7 mph - N/A   Scattered Clouds
2:42 PM 86.0 °F 93.4 °F 73.4 °F 66% 30.03 in 8.0 mi ESE 13.8 mph - N/A   Mostly Cloudy
3:53 PM 86.0 °F 93.4 °F 73.4 °F 66% 30.04 in 8.0 mi ESE 11.5 mph - N/A   Mostly Cloudy
4:56 PM 84.2 °F 90.9 °F 73.4 °F 70% 30.00 in 8.0 mi ESE 10.4 mph - N/A   Mostly Cloudy
5:46 PM 82.4 °F 88.2 °F 73.4 °F 74% 30.00 in 8.0 mi East 6.9 mph - N/A   Scattered Clouds
6:51 PM 80.6 °F 85.4 °F 73.4 °F 79% 29.99 in 8.0 mi East 4.6 mph - N/A   Scattered Clouds
7:49 PM 78.8 °F - 73.4 °F 83% 30.02 in 7.0 mi East 4.6 mph - N/A   Partly Cloudy
8:45 PM 77.0 °F - 73.4 °F 89% 30.04 in 7.0 mi East 4.6 mph - N/A   Scattered Clouds
9:41 PM 77.0 °F - 71.6 °F 83% 30.08 in 7.0 mi East 6.9 mph - N/A   Scattered Clouds
10:48 PM 75.2 °F - 71.6 °F 89% 30.06 in 7.0 mi East 3.5 mph - N/A   Scattered Clouds
11:44 PM 75.2 °F - 73.4 °F 94% 30.07 in 7.0 mi East 4.6 mph - N/A   Partly Cloudy